Location: *
(33.8649°S, 62.1526°E)
Time: 01:49:00
(UTC+00:00)

Tiangong - Visible Passes

Search period start: 21 September 2021 00:00
Search period end: 01 October 2021 00:00
Orbit: 380 x 385 km, 41.5° (Epoch: 20 September)

Date Brightness Start Highest point End Pass type
(mag) Time Alt. Az. Time Alt. Az. Time Alt. Az.
21 Sep 1.5 14:10:57 10° NW 14:14:02 48° NNE 14:17:08 10° ESE visible
21 Sep 3.5 15:48:00 10° W 15:49:44 24° WSW 15:49:44 24° WSW visible
22 Sep 1.9 14:47:30 10° W 14:50:37 48° SSW 14:52:44 18° SE visible
23 Sep 2.9 15:24:46 10° WSW 15:27:28 24° S 15:27:51 24° S visible
24 Sep 2.6 14:24:12 10° W 14:27:07 32° SSW 14:30:04 10° SE visible
24 Sep 4.2 16:02:01 10° SW 16:02:52 14° SW 16:02:52 14° SW visible
25 Sep 3.2 15:01:34 10° WSW 15:04:05 21° S 15:05:39 15° SSE visible
26 Sep 3.3 15:38:35 10° SW 15:40:34 20° S 15:40:34 20° S visible
27 Sep 3.2 14:38:17 10° SW 14:40:46 20° S 14:43:14 10° SE visible
27 Sep 4.5 16:15:08 10° SW 16:15:29 12° SW 16:15:29 12° SW visible
28 Sep 2.6 15:15:02 10° SW 15:17:49 25° SSE 15:18:12 25° SSE visible
29 Sep 3.0 14:14:53 10° SW 14:17:27 21° S 14:20:01 10° ESE visible
29 Sep 3.3 15:51:32 10° SW 15:53:08 26° SW 15:53:08 26° SW visible
30 Sep 2.2 14:51:28 10° SW 14:54:27 34° SSE 14:55:55 22° ESE visible
